User: anonymous   Login
Location: Drayton Valley
(53.2170°N, 114.9830°W)
Time: 03:24:09
(UTC-06:00)
Language:

MOZ.5/SAFIR/RUBIN 5/SL-8 - Orbit

View from above orbital plane
View from above orbital plane
View from above satellite
View from above satellite

Ground track
Ground track

The orbit data is extracted from the following two-line orbital elements,

1 28898U 05043G   15239.52238472  .00000173  00000-0  44986-4 0  9996
2 28898 097.8518 050.3290 0021284 102.1143 258.2445 14.59952391523573
Epoch (UTC): 27 August 2015 12:32:14
Eccentricity: 0.0021284
inclination: 97.8518°
perigee height: 678 km
apogee height: 708 km
right ascension of ascending node: 50.3290°
argument of perigee: 102.1143°
revolutions per day: 14.59952391
mean anomaly at epoch: 258.2445°
orbit number at epoch: 52357

The dashed part of the orbit path shows where the satellite is in the earth's shadow,  

DLR